|
NORAD ID: 36467 Int'l Code: 1993-036BBS
Perigee: 741.6 km
Apogee: 965.5 km
Inclination: 73.9 °
Period: 101.9 minutes
Semi major axis: 7224 km
Launch date: June 16, 1993
Source: Commonwealth of Independent States (former USSR) (CIS)
Note: This is SATELLITE DEBRIS
Two Line Element Set (TLE):
1 36467U 93036BBS 13129.39714801 .00002543 00000-0 12104-2 0 1756
2 36467 073.8630 142.7728 0154955 255.6785 106.8276 14.13792592186786
Source:
NASA's NSSDC Master Catalog entry for COSMOS 2251 DEB
|